Regional Weather Roundup
Issued by NWS

Home | Current Version | Previous Version | Graphics & Text | Print | Product List | Glossary Off
Versions: 1 2 3 4 5 6 7 8 9 10 11 12 13 14 15 16 17 18 19 20 21 22 23 24 25 26 27 28 29 30 31 32 33 34 35 36 37 38 39 40 41 42 43 44 45 46 47 48 49

000
ASUS43 KDMX 301007
RWRIA

WEATHER ROUNDUP FOR IOWA
NATIONAL WEATHER SERVICE DES MOINES IA
500 AM CDT TUE SEP 30 2014

NOTE: "FAIR" INDICATES FEW OR NO CLOUDS BELOW 12,000 FEET WITH NO
SIGNIFICANT WEATHER AND/OR OBSTRUCTIONS TO VISIBILITY.

* - THESE STATIONS ARE NOT NWS STATIONS...THUS NOT UNDER NWS
QUALITY CONTROL.  THEY ALSO DO NOT REPORT WEATHER SUCH
AS PRECIPITATION OR FOG.

IAZ001>003-012>014-020>022-031>034-043>046-301100-
   NORTHWEST IOWA

CITY           SKY/WX    TMP DP  RH WIND       PRES   REMARKS
CARROLL *      CLOUDY    54  54 100 E6        29.96F
CHEROKEE *     MOCLDY    54  52  94 E3        29.95F
DENISON *      CLOUDY    57  57 100 E6        29.92S
LE MARS *        N/A     54  52  94 VRB3      29.92F
ORANGE CITY *  PTCLDY    54  48  82 E9        29.92F
SHELDON *      CLOUDY    52  50  93 E12G18    29.93F
SIOUX CITY     CLOUDY    58  55  90 E10       29.89F
SPENCER        PTCLDY    51  48  89 E12       29.97F
STORM LAKE *   CLOUDY    52  50  93 E12       29.96F
$$

IAZ055>058-069>071-079>083-090>094-301100-
   SOUTHWEST IOWA

CITY           SKY/WX    TMP DP  RH WIND       PRES   REMARKS
ATLANTIC *     CLOUDY    59  59 100 VRB5      29.93F
AUDUBON *      CLOUDY    57  52  82 E6        29.96F HAZE
CLARINDA *     CLEAR     55  55 100 CALM      29.93F
COUNCIL BLFS *   N/A     61  61 100 E12       29.88F
CRESTON *      CLOUDY    59  59 100 E9        29.96F FOG
HARLAN  *      CLOUDY    59  59 100 VRB5      29.96F FOG
LAMONI         CLEAR     60  59  96 E6        29.95F FOG
RED OAK *      CLEAR     63  59  88 E5        29.92F FOG
SHENANDOAH *   CLEAR     59  57  94 NE6       29.91F
$$

IAZ047>049-059>061-072>074-084-301100-
   CENTRAL IOWA

CITY           SKY/WX    TMP DP  RH WIND       PRES   REMARKS
AMES           CLOUDY    55  53  93 E7        29.99F
ANKENY *       CLOUDY    57  55  94 E7        29.98F
CHARITON *     CLOUDY    59  59 100 E7        29.97F FOG
DES MOINES     CLOUDY    58  54  86 E6        29.97F
GRINNELL*      CLOUDY    55  54  94 E9        30.00F FOG
KNOXVILLE *    CLOUDY    57  55  94 E8        29.97F
MARSHALLTOWN   CLOUDY    55  52  89 E9        30.00F
PELLA *        CLOUDY    59  57  94 E6        30.00F
PERRY *        MOCLDY    55  54  94 E6        29.98F
$$

IAZ004>006-015-016-023>025-035-036-301100-
   NORTH CENTRAL IOWA

CITY           SKY/WX    TMP DP  RH WIND       PRES   REMARKS
ALGONA *       CLOUDY    50  48  93 E10       30.00S
CLARION *      CLOUDY    52  52 100 E9G16     30.00F
ESTHERVILLE    CLEAR     47  46  97 E6        29.99F
FORT DODGE *   MOCLDY    52  48  87 E8        29.99F
MASON CITY     CLOUDY    49  47  93 E10G17    30.03F
FOREST CITY *  CLOUDY    48  48 100 E8G16     30.02F
IOWA FALLS *   CLOUDY    54  50  87 E12       30.02F
$$

IAZ007>011-017>019-026>030-037>042-050>054-066-301100-
   NORTHEAST IOWA

CITY           SKY/WX    TMP DP  RH WIND       PRES   REMARKS
CEDAR RAPIDS   CLOUDY    54  54 100 E9        30.02
CHARLES CITY * CLOUDY    48  46  93 E13G21    30.05S
CLINTON *      CLOUDY    54  48  82 NE13      30.06F
DECORAH *      CLOUDY    46  45  93 E7G14     30.06F
MONTICELLO *   CLOUDY    52  50  93 E8G15     30.04S
OELWEIN *      CLOUDY    52  50  93 E12       30.04F
WATERLOO       CLOUDY    53  49  86 E6        30.02S
$$

IAZ064-065-067-068-078-301100-
   EAST CENTRAL IOWA

CITY           SKY/WX    TMP DP  RH WIND       PRES   REMARKS
IOWA CITY      CLOUDY    55  52  89 E8        30.04R
MT. PLEASANT * FOG       59  57  94 NE8       30.00R VSB 3/4
MUSCATINE *    CLOUDY    59  55  88 NE8G15    30.02R
$$

IAZ062-063-075>077-085>089-095>099-301100-
   SOUTHEAST IOWA

CITY           SKY/WX    TMP DP  RH WIND       PRES   REMARKS
BURLINGTON     CLOUDY    58  56  93 NE10      29.99R
FAIRFIELD *    CLOUDY    57  55  94 NE12      30.00S FOG
FORT MADISON * CLOUDY    61  57  88 NE8       30.00R FOG
KEOKUK *       PTCLDY    59  59 100 NE8       29.97S FOG
OSKALOOSA *    CLOUDY    59  57  94 E8        29.99F
CENTERVILLE *  CLEAR     59  59 100 NE6       29.98F
OTTUMWA        CLOUDY    59  57  93 NE10      29.98F
WASHINGTON *   CLOUDY    57  55  94 E9        30.00F
$$

ABBREVIATIONS USED IN REMARKS
   TC - TEMPERATURES IN CELSIUS
  WCI - WIND CHILL INDEX
   HX - HEAT INDEX
  VSB - VISIBILITY
$$



USA.gov is the U.S. government's official web portal to all federal, state and local government web resources and services.